JAL915 RJTT-ROAH

Flight info

Callsign JAL915
Flight time 2h 21m
Altitude 40000
Route LAXAS Y56 TOHME Y54 KOHWA Y12 AYANO Y128 LAXEL Y52 TONAR Y525 IHEYA
Aircraft A359/H-SDE2E3GHIJ3J4J5LM1ORWXY/LB1D1

Departure

Time 2026-04-19 03:20
Airport Tokyo Haneda International Airport (RJTT)

Arrival

Time 2026-04-19 05:42
Airport Naha International Airport (ROAH)
Time Latitude Longitude Altitude Speed Heading
2026-04-19 02:31 35.54531 139.78456 29 ft 0 kts 77°
2026-04-19 03:04 35.54527 139.78437 29 ft 4 kts 76°
2026-04-19 03:04 35.54520 139.78405 28 ft 4 kts 75°
2026-04-19 03:05 35.54515 139.78378 28 ft 4 kts 85°
2026-04-19 03:05 35.54519 139.78348 28 ft 4 kts 125°
2026-04-19 03:05 35.54538 139.78326 28 ft 4 kts 148°
2026-04-19 03:05 35.54547 139.78319 27 ft 0 kts 149°
2026-04-19 03:09 35.54520 139.78339 30 ft 9 kts 149°
2026-04-19 03:09 35.54455 139.78385 30 ft 12 kts 149°
2026-04-19 03:09 35.54373 139.78444 30 ft 15 kts 149°
2026-04-19 03:10 35.54277 139.78512 31 ft 17 kts 150°
2026-04-19 03:10 35.54165 139.78591 27 ft 21 kts 150°
2026-04-19 03:10 35.54039 139.78681 27 ft 19 kts 149°
2026-04-19 03:10 35.53916 139.78768 32 ft 21 kts 150°
2026-04-19 03:11 35.53800 139.78850 31 ft 20 kts 150°
2026-04-19 03:11 35.53675 139.78939 28 ft 22 kts 150°
2026-04-19 03:11 35.53565 139.79017 28 ft 17 kts 150°
2026-04-19 03:11 35.53466 139.79087 31 ft 13 kts 150°
2026-04-19 03:12 35.53402 139.79138 28 ft 10 kts 138°
2026-04-19 03:12 35.53371 139.79222 26 ft 11 kts 95°
2026-04-19 03:12 35.53402 139.79319 30 ft 14 kts 59°
2026-04-19 03:12 35.53453 139.79426 32 ft 15 kts 60°
2026-04-19 03:13 35.53506 139.79540 29 ft 15 kts 60°
2026-04-19 03:13 35.53566 139.79664 32 ft 17 kts 59°
2026-04-19 03:13 35.53619 139.79775 27 ft 12 kts 60°
2026-04-19 03:13 35.53665 139.79872 28 ft 14 kts 59°
2026-04-19 03:14 35.53701 139.79949 28 ft 9 kts 63°
2026-04-19 03:14 35.53698 139.80028 27 ft 10 kts 127°
2026-04-19 03:14 35.53634 139.80076 29 ft 11 kts 150°
2026-04-19 03:14 35.53572 139.80120 33 ft 10 kts 150°
2026-04-19 03:15 35.53515 139.80161 34 ft 10 kts 149°
2026-04-19 03:15 35.53454 139.80204 38 ft 11 kts 149°
2026-04-19 03:15 35.53387 139.80253 41 ft 12 kts 149°
2026-04-19 03:15 35.53312 139.80306 44 ft 13 kts 150°
2026-04-19 03:16 35.53232 139.80361 46 ft 13 kts 150°
2026-04-19 03:16 35.53154 139.80417 49 ft 13 kts 149°
2026-04-19 03:16 35.53081 139.80469 50 ft 9 kts 149°
2026-04-19 03:16 35.53030 139.80506 49 ft 9 kts 150°
2026-04-19 03:17 35.52960 139.80517 47 ft 11 kts 199°
2026-04-19 03:17 35.52895 139.80453 50 ft 13 kts 223°
2026-04-19 03:17 35.52820 139.80368 48 ft 16 kts 223°
2026-04-19 03:17 35.52734 139.80270 51 ft 17 kts 221°
2026-04-19 03:18 35.52651 139.80178 51 ft 13 kts 222°
2026-04-19 03:18 35.52596 139.80139 53 ft 10 kts 187°
2026-04-19 03:18 35.52538 139.80187 51 ft 11 kts 129°
2026-04-19 03:18 35.52483 139.80263 54 ft 10 kts 135°
2026-04-19 03:19 35.52438 139.80325 55 ft 9 kts 121°
2026-04-19 03:19 35.52443 139.80395 51 ft 9 kts 53°
2026-04-19 03:19 35.52494 139.80453 53 ft 12 kts 42°
2026-04-19 03:19 35.52621 139.80595 50 ft 54 kts 42°
2026-04-19 03:20 35.53111 139.81147 50 ft 134 kts 43°
2026-04-19 03:20 35.53942 139.82074 365 ft 175 kts 43°
2026-04-19 03:20 35.54808 139.83100 1315 ft 173 kts 52°
2026-04-19 03:20 35.55304 139.84506 1642 ft 194 kts 83°
2026-04-19 03:21 35.55083 139.86237 1843 ft 219 kts 108°
2026-04-19 03:21 35.54501 139.88064 2161 ft 240 kts 111°
2026-04-19 03:21 35.53735 139.89937 2658 ft 252 kts 125°
2026-04-19 03:21 35.52365 139.91296 3330 ft 260 kts 154°
2026-04-19 03:22 35.50570 139.91717 3958 ft 269 kts 182°
2026-04-19 03:22 35.48763 139.91067 4579 ft 276 kts 210°
2026-04-19 03:22 35.47209 139.89664 5209 ft 281 kts 221°
2026-04-19 03:22 35.45721 139.88075 5852 ft 285 kts 222°
2026-04-19 03:23 35.44237 139.86469 6441 ft 289 kts 222°
2026-04-19 03:23 35.42756 139.84788 7047 ft 292 kts 229°
2026-04-19 03:23 35.41428 139.82891 7700 ft 293 kts 232°
2026-04-19 03:23 35.40136 139.80956 8351 ft 294 kts 232°
2026-04-19 03:24 35.38843 139.78992 8993 ft 297 kts 232°
2026-04-19 03:24 35.37548 139.77008 9641 ft 299 kts 232°
2026-04-19 03:24 35.36240 139.74998 10200 ft 304 kts 232°
2026-04-19 03:24 35.34893 139.72923 10480 ft 319 kts 232°
2026-04-19 03:25 35.33483 139.70748 10741 ft 332 kts 232°
2026-04-19 03:25 35.32018 139.68491 11035 ft 345 kts 232°
2026-04-19 03:25 35.30517 139.66179 11267 ft 357 kts 232°
2026-04-19 03:25 35.28950 139.63766 11552 ft 367 kts 232°
2026-04-19 03:26 35.27350 139.61304 11971 ft 371 kts 232°
2026-04-19 03:26 35.25738 139.58825 12488 ft 373 kts 232°
2026-04-19 03:26 35.24115 139.56331 12934 ft 376 kts 232°
2026-04-19 03:26 35.22480 139.53817 13403 ft 378 kts 232°
2026-04-19 03:27 35.20845 139.51308 13973 ft 376 kts 232°
2026-04-19 03:27 35.19210 139.48803 14439 ft 377 kts 232°
2026-04-19 03:27 35.17564 139.46281 14850 ft 380 kts 232°
2026-04-19 03:27 35.15916 139.43756 15284 ft 381 kts 232°
2026-04-19 03:28 35.14255 139.41215 15704 ft 384 kts 232°
2026-04-19 03:28 35.12662 139.38600 16200 ft 384 kts 238°
2026-04-19 03:28 35.11487 139.35673 16605 ft 385 kts 251°
2026-04-19 03:28 35.10784 139.32512 17044 ft 387 kts 258°
2026-04-19 03:29 35.10302 139.29326 17526 ft 388 kts 261°
2026-04-19 03:29 35.09925 139.26042 17873 ft 392 kts 263°
2026-04-19 03:29 35.09594 139.22729 18319 ft 394 kts 263°
2026-04-19 03:29 35.09270 139.19394 18701 ft 396 kts 263°
2026-04-19 03:30 35.08934 139.16055 19135 ft 395 kts 262°
2026-04-19 03:30 35.08584 139.12729 19597 ft 394 kts 262°
2026-04-19 03:30 35.08222 139.09411 20038 ft 394 kts 262°
2026-04-19 03:30 35.07852 139.06095 20399 ft 395 kts 262°
2026-04-19 03:31 35.07476 139.02774 20846 ft 394 kts 262°
2026-04-19 03:31 35.07099 138.99459 21220 ft 395 kts 262°
2026-04-19 03:31 35.06718 138.96124 21619 ft 396 kts 261°
2026-04-19 03:31 35.06342 138.92844 22007 ft 396 kts 261°
2026-04-19 03:32 35.05959 138.89504 22390 ft 396 kts 261°
2026-04-19 03:32 35.05576 138.86166 22764 ft 397 kts 261°
2026-04-19 03:32 35.05191 138.82816 23101 ft 398 kts 261°
2026-04-19 03:32 35.04806 138.79472 23453 ft 399 kts 261°
2026-04-19 03:33 35.04418 138.76115 23767 ft 399 kts 261°
2026-04-19 03:33 35.04034 138.72799 24052 ft 400 kts 261°
2026-04-19 03:33 35.03644 138.69432 24367 ft 400 kts 261°
2026-04-19 03:33 35.03254 138.66075 24688 ft 399 kts 261°
2026-04-19 03:34 35.02864 138.62726 25003 ft 399 kts 261°
2026-04-19 03:34 35.02471 138.59364 25300 ft 400 kts 261°
2026-04-19 03:34 35.02077 138.56002 25621 ft 400 kts 261°
2026-04-19 03:34 35.01682 138.52641 25943 ft 400 kts 261°
2026-04-19 03:35 35.01288 138.49289 26267 ft 400 kts 261°
2026-04-19 03:35 35.00896 138.45974 26601 ft 400 kts 261°
2026-04-19 03:35 35.00498 138.42608 26937 ft 400 kts 261°
2026-04-19 03:35 35.00100 138.39247 27280 ft 400 kts 261°
2026-04-19 03:36 34.99699 138.35874 27645 ft 401 kts 261°
2026-04-19 03:36 34.99298 138.32511 28014 ft 401 kts 261°
2026-04-19 03:36 34.98895 138.29137 28373 ft 402 kts 261°
2026-04-19 03:36 34.98491 138.25764 28680 ft 403 kts 261°
2026-04-19 03:37 34.98082 138.22373 29050 ft 404 kts 261°
2026-04-19 03:37 34.97674 138.18998 29511 ft 402 kts 261°
2026-04-19 03:37 34.97271 138.15669 29888 ft 403 kts 261°
2026-04-19 03:37 34.96862 138.12276 30198 ft 405 kts 261°
2026-04-19 03:38 34.96450 138.08878 30509 ft 406 kts 261°
2026-04-19 03:38 34.96036 138.05472 30821 ft 405 kts 261°
2026-04-19 03:38 34.95621 138.02074 31158 ft 405 kts 261°
2026-04-19 03:38 34.95207 137.98673 31455 ft 406 kts 260°
2026-04-19 03:39 34.94792 137.95265 31792 ft 406 kts 260°
2026-04-19 03:39 34.94374 137.91851 32082 ft 407 kts 260°
2026-04-19 03:39 34.93953 137.88439 32357 ft 407 kts 260°
2026-04-19 03:39 34.93536 137.85070 32606 ft 408 kts 260°
2026-04-19 03:40 34.93110 137.81646 32879 ft 408 kts 260°
2026-04-19 03:40 34.92692 137.78234 33249 ft 406 kts 260°
2026-04-19 03:40 34.92275 137.74845 33696 ft 403 kts 259°
2026-04-19 03:40 34.91860 137.71485 34104 ft 400 kts 259°
2026-04-19 03:41 34.91343 137.68171 34443 ft 397 kts 255°
2026-04-19 03:41 34.90554 137.64955 34768 ft 394 kts 251°
2026-04-19 03:41 34.89663 137.61799 35081 ft 393 kts 251°
2026-04-19 03:41 34.88738 137.58666 35359 ft 392 kts 250°
2026-04-19 03:42 34.87799 137.55549 35666 ft 391 kts 250°
2026-04-19 03:42 34.86857 137.52444 35998 ft 389 kts 250°
2026-04-19 03:42 34.85933 137.49403 36304 ft 388 kts 250°
2026-04-19 03:42 34.85002 137.46327 36632 ft 386 kts 250°
2026-04-19 03:43 34.84100 137.43255 36899 ft 385 kts 251°
2026-04-19 03:43 34.83218 137.40168 37179 ft 385 kts 251°
2026-04-19 03:43 34.82350 137.37095 37475 ft 383 kts 251°
2026-04-19 03:43 34.81485 137.34037 37773 ft 382 kts 251°
2026-04-19 03:44 34.80616 137.30980 38082 ft 381 kts 251°
2026-04-19 03:44 34.80041 137.28964 38278 ft 380 kts 251°
2026-04-19 03:44 34.79172 137.25927 38572 ft 379 kts 251°
2026-04-19 03:44 34.78303 137.22904 38809 ft 378 kts 251°
2026-04-19 03:45 34.77433 137.19881 39007 ft 378 kts 251°
2026-04-19 03:45 34.76562 137.16863 39156 ft 379 kts 251°
2026-04-19 03:45 34.75699 137.13873 39323 ft 379 kts 251°
2026-04-19 03:45 34.74824 137.10844 39520 ft 379 kts 251°
2026-04-19 03:46 34.73948 137.07815 39685 ft 379 kts 251°
2026-04-19 03:46 34.73076 137.04803 39846 ft 379 kts 251°
2026-04-19 03:46 34.72151 137.01795 40002 ft 379 kts 248°
2026-04-19 03:46 34.70992 136.98903 40161 ft 381 kts 243°
2026-04-19 03:47 34.69556 136.96191 40332 ft 384 kts 237°
2026-04-19 03:47 34.67855 136.93730 40478 ft 385 kts 232°
2026-04-19 03:47 34.65905 136.91534 40175 ft 382 kts 226°
2026-04-19 03:47 34.63822 136.89512 40033 ft 384 kts 225°
2026-04-19 03:48 34.61681 136.87525 40022 ft 390 kts 225°
2026-04-19 03:48 34.57286 136.83526 40020 ft 397 kts 224°
2026-04-19 03:49 34.52863 136.79494 40023 ft 397 kts 225°
2026-04-19 03:49 34.48489 136.75476 40023 ft 396 kts 225°
2026-04-19 03:50 34.44094 136.71426 40021 ft 396 kts 225°
2026-04-19 03:50 34.39708 136.67389 40028 ft 396 kts 225°
2026-04-19 03:51 34.35321 136.63355 40031 ft 396 kts 225°
2026-04-19 03:51 34.30945 136.59342 40031 ft 397 kts 225°
2026-04-19 03:52 34.26564 136.55287 40034 ft 395 kts 225°
2026-04-19 03:52 34.22227 136.51198 40039 ft 395 kts 225°
2026-04-19 03:53 34.17888 136.47112 40038 ft 395 kts 225°
2026-04-19 03:53 34.13572 136.43068 40038 ft 395 kts 225°
2026-04-19 03:54 34.09097 136.39161 40042 ft 401 kts 219°
2026-04-19 03:54 34.04177 136.35885 40032 ft 405 kts 217°
2026-04-19 03:55 33.99168 136.32732 40038 ft 406 kts 216°
2026-04-19 03:55 33.94142 136.29590 40037 ft 407 kts 216°
2026-04-19 03:56 33.89155 136.26463 40038 ft 407 kts 216°
2026-04-19 03:56 33.84141 136.23311 40037 ft 406 kts 216°
2026-04-19 03:57 33.79117 136.20156 40038 ft 406 kts 216°
2026-04-19 03:57 33.74099 136.17007 40034 ft 407 kts 216°
2026-04-19 03:58 33.69065 136.13853 40038 ft 409 kts 216°
2026-04-19 03:58 33.64020 136.10698 40037 ft 409 kts 216°
2026-04-19 03:59 33.58968 136.07544 40035 ft 409 kts 216°
2026-04-19 03:59 33.53924 136.04398 40035 ft 409 kts 216°
2026-04-19 04:00 33.48903 136.01270 40031 ft 409 kts 216°
2026-04-19 04:00 33.43844 135.98123 40032 ft 409 kts 216°
2026-04-19 04:01 33.38789 135.94982 40030 ft 409 kts 216°
2026-04-19 04:01 33.31232 135.90295 40028 ft 409 kts 216°
2026-04-19 04:02 33.26171 135.87161 40024 ft 409 kts 216°
2026-04-19 04:02 33.21151 135.84055 40030 ft 409 kts 215°
2026-04-19 04:03 33.16106 135.80940 40027 ft 408 kts 215°
2026-04-19 04:03 33.11047 135.77819 40030 ft 408 kts 215°
2026-04-19 04:04 33.06004 135.74713 40027 ft 408 kts 215°
2026-04-19 04:04 33.00985 135.71625 40026 ft 408 kts 215°
2026-04-19 04:05 32.95939 135.68524 40010 ft 408 kts 215°
2026-04-19 04:05 32.90895 135.65429 40018 ft 407 kts 215°
2026-04-19 04:06 32.85852 135.62339 40018 ft 407 kts 215°
2026-04-19 04:06 32.80848 135.59275 40018 ft 407 kts 215°
2026-04-19 04:07 32.75802 135.56190 40016 ft 407 kts 215°
2026-04-19 04:07 32.70765 135.53115 40001 ft 407 kts 215°
2026-04-19 04:08 32.65715 135.50035 40015 ft 408 kts 215°
2026-04-19 04:08 32.60667 135.46961 40015 ft 408 kts 215°
2026-04-19 04:09 32.55643 135.43906 40015 ft 408 kts 215°
2026-04-19 04:09 32.50586 135.40835 40009 ft 408 kts 215°
2026-04-19 04:10 32.45530 135.37768 40004 ft 408 kts 214°
2026-04-19 04:10 32.40465 135.34697 40008 ft 409 kts 214°
2026-04-19 04:11 32.35390 135.31626 40010 ft 409 kts 214°
2026-04-19 04:11 32.30317 135.28562 40004 ft 410 kts 214°
2026-04-19 04:12 32.25271 135.25517 40005 ft 410 kts 214°
2026-04-19 04:12 32.20194 135.22457 40003 ft 410 kts 214°
2026-04-19 04:13 32.15111 135.19396 40010 ft 410 kts 214°
2026-04-19 04:13 32.10259 135.15952 40004 ft 402 kts 223°
2026-04-19 04:14 32.06352 135.11398 40005 ft 395 kts 234°
2026-04-19 04:14 32.02956 135.06306 39994 ft 394 kts 235°
2026-04-19 04:15 31.99636 135.01155 40007 ft 394 kts 235°
2026-04-19 04:15 31.96309 134.96020 40003 ft 394 kts 235°
2026-04-19 04:16 31.92994 134.90945 39977 ft 393 kts 235°
2026-04-19 04:16 31.89643 134.85835 40004 ft 394 kts 235°
2026-04-19 04:17 31.86286 134.80725 40004 ft 394 kts 235°
2026-04-19 04:17 31.82932 134.75624 40001 ft 394 kts 235°
2026-04-19 04:18 31.79574 134.70523 40000 ft 394 kts 235°
2026-04-19 04:18 31.76214 134.65425 40004 ft 394 kts 235°
2026-04-19 04:19 31.72873 134.60363 40009 ft 394 kts 234°
2026-04-19 04:19 31.69512 134.55279 39985 ft 393 kts 234°
2026-04-19 04:20 31.66148 134.50194 40000 ft 394 kts 234°
2026-04-19 04:20 31.62777 134.45107 39999 ft 395 kts 234°
2026-04-19 04:21 31.59406 134.40027 40006 ft 394 kts 234°
2026-04-19 04:21 31.56029 134.34946 39991 ft 395 kts 234°
2026-04-19 04:22 31.52667 134.29891 39999 ft 396 kts 234°
2026-04-19 04:22 31.49281 134.24808 39998 ft 396 kts 234°
2026-04-19 04:23 31.45883 134.19715 40005 ft 395 kts 234°
2026-04-19 04:23 31.42492 134.14638 39996 ft 396 kts 234°
2026-04-19 04:24 31.39120 134.09596 39995 ft 396 kts 234°
2026-04-19 04:24 31.35721 134.04521 39996 ft 396 kts 234°
2026-04-19 04:25 31.32322 133.99451 39987 ft 395 kts 234°
2026-04-19 04:25 31.28925 133.94392 39993 ft 396 kts 234°
2026-04-19 04:26 31.25522 133.89330 39996 ft 396 kts 234°
2026-04-19 04:26 31.22135 133.84300 39995 ft 396 kts 234°
2026-04-19 04:27 31.18727 133.79243 39993 ft 396 kts 234°
2026-04-19 04:27 31.15312 133.74183 39993 ft 397 kts 234°
2026-04-19 04:28 31.11894 133.69126 39993 ft 397 kts 234°
2026-04-19 04:28 31.08471 133.64067 39975 ft 397 kts 234°
2026-04-19 04:29 31.05047 133.59014 39988 ft 397 kts 234°
2026-04-19 04:29 31.01614 133.53956 39988 ft 397 kts 234°
2026-04-19 04:30 30.98186 133.48905 39990 ft 397 kts 234°
2026-04-19 04:30 30.94776 133.43886 39984 ft 398 kts 234°
2026-04-19 04:31 30.91335 133.38829 39988 ft 398 kts 233°
2026-04-19 04:31 30.87890 133.33773 39987 ft 398 kts 233°
2026-04-19 04:32 30.84449 133.28730 39988 ft 398 kts 233°
2026-04-19 04:32 30.80996 133.23676 39988 ft 399 kts 233°
2026-04-19 04:33 30.78118 133.19469 39985 ft 399 kts 233°
2026-04-19 04:33 30.74666 133.14428 39985 ft 399 kts 233°
2026-04-19 04:34 30.71204 133.09379 39985 ft 399 kts 233°
2026-04-19 04:34 30.67761 133.04364 39985 ft 399 kts 233°
2026-04-19 04:35 30.64292 132.99317 39986 ft 399 kts 233°
2026-04-19 04:35 30.60825 132.94281 39982 ft 398 kts 233°
2026-04-19 04:36 30.57367 132.89264 39982 ft 398 kts 233°
2026-04-19 04:36 30.53906 132.84248 39980 ft 398 kts 233°
2026-04-19 04:37 30.50446 132.79240 39979 ft 398 kts 233°
2026-04-19 04:37 30.46979 132.74229 39980 ft 398 kts 233°
2026-04-19 04:38 30.43509 132.69219 39970 ft 399 kts 233°
2026-04-19 04:38 30.40048 132.64229 39978 ft 400 kts 233°
2026-04-19 04:39 30.36559 132.59205 39979 ft 400 kts 233°
2026-04-19 04:39 30.33078 132.54199 39974 ft 399 kts 233°
2026-04-19 04:40 30.29592 132.49191 39976 ft 400 kts 233°
2026-04-19 04:40 30.26097 132.44178 39967 ft 400 kts 233°
2026-04-19 04:41 30.22601 132.39168 39981 ft 400 kts 233°
2026-04-19 04:41 30.19109 132.34173 39966 ft 399 kts 232°
2026-04-19 04:42 30.15613 132.29176 39966 ft 400 kts 232°
2026-04-19 04:42 30.12119 132.24188 39968 ft 400 kts 232°
2026-04-19 04:43 30.08633 132.19219 39981 ft 400 kts 232°
2026-04-19 04:43 30.05108 132.14200 39963 ft 399 kts 232°
2026-04-19 04:44 30.01627 132.09250 39960 ft 400 kts 232°
2026-04-19 04:44 29.98115 132.04261 39961 ft 401 kts 232°
2026-04-19 04:45 29.94594 131.99267 39956 ft 401 kts 232°
2026-04-19 04:45 29.91077 131.94283 39955 ft 400 kts 232°
2026-04-19 04:46 29.87558 131.89305 39953 ft 400 kts 232°
2026-04-19 04:46 29.84037 131.84328 39950 ft 401 kts 232°
2026-04-19 04:47 29.80507 131.79356 39946 ft 401 kts 232°
2026-04-19 04:47 29.76920 131.74487 39915 ft 400 kts 231°
2026-04-19 04:48 29.73288 131.69618 39946 ft 401 kts 231°
2026-04-19 04:48 29.69656 131.64731 39947 ft 402 kts 231°
2026-04-19 04:49 29.66021 131.59829 39940 ft 402 kts 231°
2026-04-19 04:49 29.62391 131.54934 39929 ft 402 kts 231°
2026-04-19 04:50 29.58775 131.50063 39941 ft 403 kts 231°
2026-04-19 04:50 29.55123 131.45152 39937 ft 403 kts 231°
2026-04-19 04:51 29.51477 131.40255 39938 ft 403 kts 231°
2026-04-19 04:51 29.47849 131.35388 39909 ft 403 kts 231°
2026-04-19 04:52 29.44188 131.30481 39941 ft 406 kts 231°
2026-04-19 04:52 29.40505 131.25553 39937 ft 407 kts 230°
2026-04-19 04:53 29.36812 131.20618 39933 ft 407 kts 230°
2026-04-19 04:53 29.33122 131.15691 39929 ft 407 kts 230°
2026-04-19 04:54 29.29425 131.10762 39936 ft 408 kts 230°
2026-04-19 04:54 29.25731 131.05842 39931 ft 406 kts 230°
2026-04-19 04:55 29.22045 131.00939 39932 ft 406 kts 230°
2026-04-19 04:55 29.18354 130.96035 39923 ft 406 kts 230°
2026-04-19 04:56 29.14689 130.91171 39940 ft 406 kts 230°
2026-04-19 04:56 29.11004 130.86288 39922 ft 404 kts 231°
2026-04-19 04:57 29.07330 130.81424 39921 ft 403 kts 231°
2026-04-19 04:57 29.03657 130.76567 39905 ft 403 kts 230°
2026-04-19 04:58 28.99974 130.71702 39921 ft 405 kts 230°
2026-04-19 04:58 28.96299 130.66854 39920 ft 405 kts 230°
2026-04-19 04:59 28.92602 130.61983 39919 ft 405 kts 230°
2026-04-19 04:59 28.88932 130.57153 39901 ft 405 kts 230°
2026-04-19 05:00 28.85222 130.52276 39914 ft 407 kts 230°
2026-04-19 05:00 28.81510 130.47403 39930 ft 407 kts 230°
2026-04-19 05:01 28.77799 130.42537 39914 ft 405 kts 230°
2026-04-19 05:01 28.74095 130.37685 39887 ft 405 kts 230°
2026-04-19 05:02 28.70410 130.32864 39902 ft 407 kts 230°
2026-04-19 05:02 28.66682 130.27992 39903 ft 407 kts 230°
2026-04-19 05:03 28.62957 130.23130 39912 ft 407 kts 230°
2026-04-19 05:03 28.59235 130.18279 39910 ft 405 kts 230°
2026-04-19 05:04 28.55524 130.13446 39902 ft 406 kts 230°
2026-04-19 05:04 28.51818 130.08625 39906 ft 407 kts 230°
2026-04-19 05:05 28.48089 130.03781 39914 ft 407 kts 230°
2026-04-19 05:05 28.44356 129.98938 39910 ft 406 kts 230°
2026-04-19 05:06 28.40634 129.94114 39913 ft 406 kts 230°
2026-04-19 05:06 28.36903 129.89284 39909 ft 407 kts 230°
2026-04-19 05:07 28.33183 129.84472 39911 ft 407 kts 230°
2026-04-19 05:07 28.29433 129.79629 39913 ft 407 kts 230°
2026-04-19 05:08 28.23848 129.72426 39891 ft 407 kts 230°
2026-04-19 05:09 28.20107 129.67608 39896 ft 407 kts 230°
2026-04-19 05:09 28.16355 129.62781 39902 ft 407 kts 230°
2026-04-19 05:10 28.12607 129.57965 39917 ft 407 kts 230°
2026-04-19 05:10 28.08863 129.53160 39918 ft 407 kts 230°
2026-04-19 05:11 28.05113 129.48353 39918 ft 407 kts 230°
2026-04-19 05:11 28.01360 129.43547 39916 ft 407 kts 230°
2026-04-19 05:12 27.97632 129.38779 39917 ft 407 kts 230°
2026-04-19 05:12 27.93875 129.33980 39931 ft 408 kts 230°
2026-04-19 05:13 27.90116 129.29183 39916 ft 406 kts 230°
2026-04-19 05:13 27.86364 129.24400 39914 ft 406 kts 230°
2026-04-19 05:14 27.82631 129.19646 39923 ft 406 kts 230°
2026-04-19 05:14 27.78877 129.14872 39907 ft 407 kts 230°
2026-04-19 05:15 27.75102 129.10077 39927 ft 408 kts 230°
2026-04-19 05:15 27.71333 129.05298 39922 ft 406 kts 230°
2026-04-19 05:16 27.67573 129.00536 39924 ft 406 kts 230°
2026-04-19 05:16 27.63810 128.95774 39918 ft 406 kts 230°
2026-04-19 05:17 27.60045 128.91016 39910 ft 406 kts 230°
2026-04-19 05:17 27.56303 128.86293 39890 ft 405 kts 230°
2026-04-19 05:17 27.54425 128.83924 39749 ft 405 kts 230°
2026-04-19 05:18 27.52551 128.81561 39520 ft 404 kts 230°
2026-04-19 05:18 27.50673 128.79196 39282 ft 403 kts 230°
2026-04-19 05:18 27.48800 128.76837 39060 ft 403 kts 230°
2026-04-19 05:18 27.46934 128.74488 38814 ft 403 kts 230°
2026-04-19 05:19 27.45692 128.72927 38657 ft 404 kts 230°
2026-04-19 05:19 27.43295 128.69658 38340 ft 404 kts 236°
2026-04-19 05:19 27.42282 128.67908 38174 ft 404 kts 237°
2026-04-19 05:19 27.40809 128.65230 37742 ft 400 kts 238°
2026-04-19 05:20 27.39375 128.62539 37052 ft 400 kts 238°
2026-04-19 05:20 27.37509 128.58976 36128 ft 399 kts 238°
2026-04-19 05:20 27.36558 128.57153 35632 ft 399 kts 239°
2026-04-19 05:20 27.35168 128.54490 34903 ft 400 kts 238°
2026-04-19 05:21 27.33731 128.51744 34060 ft 403 kts 238°
2026-04-19 05:21 27.32314 128.49046 33118 ft 406 kts 238°
2026-04-19 05:21 27.30871 128.46306 32199 ft 408 kts 238°
2026-04-19 05:21 27.29419 128.43554 31288 ft 410 kts 238°
2026-04-19 05:22 27.27958 128.40787 30342 ft 413 kts 238°
2026-04-19 05:22 27.26481 128.37996 29248 ft 416 kts 238°
2026-04-19 05:22 27.24998 128.35195 28335 ft 415 kts 238°
2026-04-19 05:22 27.23532 128.32424 27652 ft 410 kts 238°
2026-04-19 05:23 27.22081 128.29684 26938 ft 406 kts 238°
2026-04-19 05:23 27.20638 128.26961 26234 ft 403 kts 238°
2026-04-19 05:23 27.19226 128.24298 25537 ft 401 kts 239°
2026-04-19 05:23 27.17796 128.21603 24837 ft 399 kts 239°
2026-04-19 05:24 27.16373 128.18923 24136 ft 398 kts 239°
2026-04-19 05:24 27.14896 128.16338 23846 ft 390 kts 234°
2026-04-19 05:24 27.13122 128.13975 23833 ft 403 kts 227°
2026-04-19 05:24 27.10963 128.11925 23832 ft 411 kts 218°
2026-04-19 05:25 27.08441 128.10369 23776 ft 417 kts 207°
2026-04-19 05:25 27.05654 128.09411 23587 ft 421 kts 199°
2026-04-19 05:25 27.02802 128.08662 23332 ft 422 kts 198°
2026-04-19 05:25 26.99932 128.07927 23068 ft 422 kts 198°
2026-04-19 05:26 26.97069 128.07189 22766 ft 420 kts 198°
2026-04-19 05:26 26.94259 128.06461 22310 ft 411 kts 198°
2026-04-19 05:26 26.91533 128.05752 21784 ft 404 kts 198°
2026-04-19 05:26 26.88809 128.05041 21228 ft 399 kts 198°
2026-04-19 05:27 26.86128 128.04339 20676 ft 394 kts 198°
2026-04-19 05:27 26.83473 128.03644 20112 ft 390 kts 198°
2026-04-19 05:27 26.80842 128.02955 19562 ft 386 kts 198°
2026-04-19 05:27 26.78232 128.02271 19000 ft 383 kts 198°
2026-04-19 05:28 26.75642 128.01593 18435 ft 383 kts 198°
2026-04-19 05:28 26.73047 128.00913 17825 ft 382 kts 197°
2026-04-19 05:28 26.70456 128.00236 17220 ft 379 kts 197°
2026-04-19 05:28 26.67900 127.99569 16664 ft 376 kts 197°
2026-04-19 05:29 26.65365 127.98907 16085 ft 372 kts 197°
2026-04-19 05:29 26.62885 127.98260 15512 ft 368 kts 197°
2026-04-19 05:29 26.60397 127.97612 14967 ft 366 kts 197°
2026-04-19 05:29 26.57926 127.96967 14400 ft 363 kts 197°
2026-04-19 05:30 26.55475 127.96328 13831 ft 361 kts 197°
2026-04-19 05:30 26.53036 127.95693 13231 ft 358 kts 197°
2026-04-19 05:30 26.50628 127.95068 12712 ft 353 kts 197°
2026-04-19 05:30 26.48239 127.94446 12160 ft 352 kts 197°
2026-04-19 05:31 26.45863 127.93826 11618 ft 350 kts 197°
2026-04-19 05:31 26.43482 127.93206 11174 ft 351 kts 197°
2026-04-19 05:31 26.41144 127.92600 11017 ft 339 kts 197°
2026-04-19 05:31 26.38891 127.91879 10996 ft 335 kts 204°
2026-04-19 05:32 26.36755 127.90858 10785 ft 331 kts 207°
2026-04-19 05:32 26.34691 127.89798 10139 ft 325 kts 208°
2026-04-19 05:32 26.32659 127.88750 9641 ft 314 kts 208°
2026-04-19 05:32 26.30746 127.87769 9208 ft 291 kts 208°
2026-04-19 05:33 26.28959 127.86855 8803 ft 274 kts 208°
2026-04-19 05:33 26.27263 127.85986 8443 ft 265 kts 208°
2026-04-19 05:33 26.25600 127.85134 8095 ft 261 kts 208°
2026-04-19 05:33 26.23958 127.84293 7750 ft 259 kts 208°
2026-04-19 05:34 26.22342 127.83465 7408 ft 258 kts 208°
2026-04-19 05:34 26.20712 127.82632 7097 ft 256 kts 208°
2026-04-19 05:34 26.19101 127.81812 6770 ft 253 kts 208°
2026-04-19 05:34 26.17508 127.80999 6392 ft 248 kts 208°
2026-04-19 05:35 26.15954 127.80207 6027 ft 245 kts 208°
2026-04-19 05:35 26.14407 127.79421 5723 ft 242 kts 208°
2026-04-19 05:35 26.12882 127.78641 5254 ft 239 kts 208°
2026-04-19 05:35 26.11380 127.77872 4753 ft 236 kts 206°
2026-04-19 05:36 26.09908 127.77121 4249 ft 235 kts 207°
2026-04-19 05:36 26.08424 127.76369 3750 ft 232 kts 207°
2026-04-19 05:36 26.06983 127.75597 3267 ft 227 kts 212°
2026-04-19 05:36 26.05789 127.74487 2782 ft 223 kts 233°
2026-04-19 05:37 26.05105 127.72962 2308 ft 221 kts 257°
2026-04-19 05:37 26.04917 127.71272 1850 ft 220 kts 269°
2026-04-19 05:37 26.04864 127.69631 1597 ft 207 kts 271°
2026-04-19 05:37 26.04823 127.68054 1593 ft 204 kts 270°
2026-04-19 05:38 26.04817 127.66492 1586 ft 199 kts 277°
2026-04-19 05:38 26.05218 127.65104 1541 ft 181 kts 309°
2026-04-19 05:38 26.06196 127.64295 1547 ft 175 kts 334°
2026-04-19 05:38 26.07285 127.63838 1540 ft 162 kts 346°
2026-04-19 05:39 26.08399 127.63766 1571 ft 156 kts 359°
2026-04-19 05:39 26.09447 127.63762 1561 ft 148 kts 356°
2026-04-19 05:39 26.10444 127.63705 1480 ft 140 kts 354°
2026-04-19 05:39 26.11389 127.63661 1293 ft 132 kts 355°
2026-04-19 05:40 26.12285 127.63621 1114 ft 126 kts 355°
2026-04-19 05:40 26.13151 127.63580 958 ft 126 kts 355°
2026-04-19 05:40 26.14035 127.63548 804 ft 128 kts 357°
2026-04-19 05:40 26.14934 127.63526 666 ft 130 kts 356°
2026-04-19 05:41 26.15823 127.63460 407 ft 127 kts 354°
2026-04-19 05:41 26.16696 127.63384 222 ft 123 kts 359°
2026-04-19 05:41 26.17539 127.63383 118 ft 121 kts 358°
2026-04-19 05:41 26.18391 127.63340 38 ft 125 kts 355°
2026-04-19 05:42 26.19089 127.63301 33 ft 63 kts 358°
2026-04-19 05:42 26.19349 127.63307 34 ft 25 kts 10°
2026-04-19 05:42 26.19494 127.63369 36 ft 22 kts 27°
2026-04-19 05:42 26.19612 127.63436 35 ft 17 kts 27°
2026-04-19 05:43 26.19726 127.63462 35 ft 17 kts 358°
2026-04-19 05:43 26.19847 127.63457 35 ft 18 kts 358°
2026-04-19 05:43 26.19970 127.63450 35 ft 18 kts 356°
2026-04-19 05:43 26.20105 127.63442 35 ft 20 kts 359°
2026-04-19 05:44 26.20211 127.63439 35 ft 12 kts 358°
2026-04-19 05:44 26.20284 127.63449 35 ft 10 kts 33°
2026-04-19 05:44 26.20302 127.63525 35 ft 12 kts 86°
2026-04-19 05:44 26.20306 127.63633 35 ft 16 kts 88°
2026-04-19 05:45 26.20311 127.63769 35 ft 19 kts 87°
2026-04-19 05:45 26.20317 127.63928 35 ft 19 kts 88°
2026-04-19 05:45 26.20323 127.64070 35 ft 19 kts 88°
2026-04-19 05:45 26.20327 127.64191 35 ft 13 kts 88°
2026-04-19 05:46 26.20331 127.64286 35 ft 11 kts 88°
2026-04-19 05:46 26.20334 127.64373 35 ft 12 kts 88°
2026-04-19 05:46 26.20338 127.64469 35 ft 13 kts 87°
2026-04-19 05:46 26.20341 127.64558 35 ft 12 kts 87°
2026-04-19 05:47 26.20345 127.64648 34 ft 8 kts 86°
2026-04-19 05:47 26.20348 127.64720 34 ft 9 kts 87°
2026-04-19 05:47 26.20361 127.64766 34 ft 6 kts 60°
2026-04-19 05:47 26.20387 127.64801 35 ft 5 kts 47°
2026-04-19 05:48 26.20409 127.64828 35 ft 4 kts 47°
2026-04-19 05:48 26.20426 127.64847 35 ft 2 kts 46°
2026-04-19 05:48 26.20435 127.64857 35 ft 1 kts 46°
2026-04-19 05:48 26.20438 127.64861 35 ft 0 kts 46°